Martinsville, VA (24112)

6:18 AM EST on February 09, 2016 (GMT -0500)
Patrick Henry Mall Area | | Change Station
CLOSE
Current Station
Personal Weather Station
Location: Martinsville, VA
Elevation: 1020 ft
Nearby Weather Stations

Elev 1020 ft 36.69 °N, 79.86 °W | Updated 14 minutes ago

Overcast
Overcast
31.1 °F
Feels Like 31 °F
N
1.0
Wind Variable Wind from WNW
Gusts 4.0 mph

Today
High -- | Low -- °F
--% Chance of Precip.
Yesterday
High -- | Low -- °F
Precip. -- in
Pressure 29.63 in
Visibility 10.0 miles
Clouds Overcast 9000 ft
Windchill 31 °F
Dew Point 27 °F
Humidity 85%
Rainfall 0.00 in
Snow Depth Not available.
7:14 AM 5:53 PM
New Moon, 1% visible
METAR KMTV 091055Z AUTO 27003KT 10SM OVC090 M03/M04 A2963 RMK AO2 T10271039
Pressure 29.63 in
Visibility 10.0 miles
Clouds Overcast 9000 ft
Windchill 31 °F
Dew Point 27 °F
Humidity 85%
Rainfall 0.00 in
Snow Depth Not available.
7:14 AM 5:53 PM
New Moon, 1% visible
METAR KMTV 091055Z AUTO 27003KT 10SM OVC090 M03/M04 A2963 RMK AO2 T10271039

10-Day Weather Forecast

Almanac

Astronomy

Feb. 09, 2016 Rise Set
Actual Time
Civil Twilight
Nautical Twilight
Astronomical Twilight
Moon
Length of Visible Light
Length of Day
Tomorrow will be .
, % of the Moon is Illuminated

Today's Extremes

State Highs State Lows

Community

WunderPhotos

Upload Photos

1,891,565 photos uploaded!

WunderBlog® & News

Nearby

Air Quality

  Air Quality AQ Index Pollutant
Not available.

Snow Depth

Station Depth Elevation

Earthquake Activity

City Distance Mag. Time & Date
Minimum magnitude displayed is 2.5.

Coastal Water Temperatures

Place Temperature

Stations

Nearby Weather Stations

Station Location Temp. Windchill Dew Point Humidity Wind Precip. Elev Updated Type
                   

Watches & Warnings

There are currently no watches in effect.